Location: Columbia
(38.9520°N, 92.3340°W)
Time: 19:06:03
(UTC-05:00)

Meteor 1-4 Rocket - Visible Passes

Search period start: 29 July 2015 00:00
Search period end: 08 August 2015 00:00
Orbit: 461 x 520 km, 81.2° (Epoch: 29 July)

Date Brightness Start Highest point End Pass type
(mag) Time Alt. Az. Time Alt. Az. Time Alt. Az.
29 Jul 4.5 21:54:45 10° NNE 21:57:18 17° ENE 21:57:36 17° ENE visible
29 Jul 4.5 23:29:21 10° NNW 23:32:06 27° WNW 23:32:06 27° WNW visible
30 Jul 4.9 21:32:57 10° NE 21:34:19 12° ENE 21:35:08 11° E visible
30 Jul 3.7 23:06:18 10° NNW 23:09:38 42° WNW 23:09:38 42° WNW visible
31 Jul 2.8 22:43:22 10° NNW 22:47:12 68° W 22:47:12 68° W visible
01 Aug 2.5 22:20:32 10° N 22:24:25 77° E 22:24:46 69° SE visible
02 Aug 3.0 21:57:49 10° N 22:01:35 49° ENE 22:02:21 41° ESE visible
03 Aug 3.6 21:35:12 10° N 21:38:42 32° ENE 21:39:58 26° ESE visible
03 Aug 5.2 23:11:32 10° NW 23:13:47 15° W 23:14:29 14° WSW visible
04 Aug 4.1 21:12:45 10° NNE 21:15:46 22° ENE 21:17:36 16° ESE visible
04 Aug 4.8 22:48:02 10° NW 22:51:03 22° W 22:52:07 19° WSW visible
05 Aug 4.6 20:50:33 10° NE 20:52:46 15° ENE 20:55:07 10° ESE visible
05 Aug 4.2 22:24:49 10° NNW 22:28:18 32° W 22:29:47 23° SW visible
06 Aug 3.5 22:01:47 10° NNW 22:05:31 49° W 22:07:29 24° SSW visible
07 Aug 2.7 21:38:51 10° NNW 21:42:43 79° W 21:45:12 20° S visible
